Regional Weather Roundup
Issued by NWS

Home | Current Version | Previous Version | Text Only | Print | Product List | Glossary On
Versions: 1 2 3 4 5 6 7 8 9 10 11 12 13 14 15 16 17 18 19 20 21 22 23 24 25 26 27 28 29 30 31 32 33 34 35 36 37 38 39 40 41 42 43 44 45 46 47 48 49 50
000
ASUS44 KJAN 022110
RWRMS

MISSISSIPPI HOURLY WEATHER ROUNDUP
NATIONAL WEATHER SERVICE JACKSON MS
400 PM CDT TUE SEP 02 2014

NOTE: "FAIR: INDICATES FEW OR NO CLOUDS BELOW 12,000 FEET WITH NO
SIGNIFICANT WEATHER AND/OR OBSTRUCTIONS TO VISIBILITY.

MSZ001>002-007>008-010>013-018>021-025>028-034>036-022200-
NORTHWEST MISSISSIPPI

CITY           SKY/WX    TMP DP  RH WIND       PRES   REMARKS
CLARKSDALE     FAIR      75  75 100 CALM      29.98F
CLEVELAND      FAIR      78  76  94 W3        29.98F
GREENWOOD      RAIN      77  75  93 SE3       30.01R FOG
GREENVILLE     CLOUDY    82  76  81 NW9       29.99F
GRENADA        MOCLDY    77  70  78 SW7       30.01S THUNDER
OLIVE BRANCH   PTSUNNY   84  79  84 S9        29.96F HX  96
OXFORD         HVY RAIN  73  72  94 CALM      30.01F VSB 1/2
TUNICA         CLOUDY    73  70  88 SW5       29.98F
$$

MSZ003>006-009-014>017-022>024-029>033-037>039-022200-
NORTHEAST MISSISSIPPI

CITY           SKY/WX    TMP DP  RH WIND       PRES   REMARKS
COLUMBUS AFB   CLOUDY    78  74  86 SW3       30.02F
CORINTH        FAIR      81  75  83 S10       29.98F
GOLDN TRIANGLE MOSUNNY   77  72  83 CALM      30.03F
STARKVILLE     FAIR      73  72  94 CALM      30.03F
TUPELO         CLOUDY    79  74  84 SW8       29.99F
$$

MSZ040-058-022200-
CENTRAL MISSISSIPPI

CITY           SKY/WX    TMP DP  RH WIND       PRES   REMARKS
JACKSON INTL   TSTM      79  75  87 N8        29.98F
JACKSON HAWKNS PTSUNNY   85  76  74 E6        29.98F HX  94
MERIDIAN KEY   CLOUDY    82  72  71 N6        30.01F
MERIDIAN NAS   CLOUDY    81  72  74 NW8       30.02F
RAYMOND        FAIR      93  86  79 S8        29.96F THUNDER HX 125
VICKSBURG      CLOUDY    85  74  69 VRB3      29.97F HX  92
$$

MSZ059>079-022200-
SOUTH MISSISSIPPI

CITY           SKY/WX    TMP DP  RH WIND       PRES   REMARKS
BROOKHAVEN     FAIR      90  75  62 S5        30.02F HX 100
COLUMBIA       TSTM      75  72  88 N10G22    29.99
HATTIESBURG    PTSUNNY   84  75  74 S6        30.01F HX  92
MCCOMB         MOSUNNY   92  72  51 SW6       29.99F HX  99
NATCHEZ        PTSUNNY   81  73  78 W10       30.01R
PINE BELT      CLOUDY    88  72  58 S7        30.03S HX  94
$$

MSZ080>082-022200-
COASTAL MISSISSIPPI

CITY           SKY/WX    TMP DP  RH WIND       PRES   REMARKS
BILOXI         PTSUNNY   90  76  62 S8        30.01F HX 101
PASCAGOULA     CLOUDY    85  76  74 SW3       30.02R HX  94
GULFPORT       MOSUNNY   89  76  65 S10       30.00F HX 100
$$


USA.gov is the U.S. government's official web portal to all federal, state and local government web resources and services.